�������l�o���
Date,Time,MP-1(��Sv/h),MP-2(��Sv/h),MP-3(��Sv/h),MP-4(��Sv/h),MP-5(��Sv/h),MP-6(��Sv/h),MP-7(��Sv/h),MP-8(��Sv/h),����,����(m/s),���J
2023/01/11,00:00,0.571,0.830,0.516,1.063,0.734,0.323,0.587,0.558,���쐼,2.0,��
2023/01/11,00:10,0.570,0.829,0.516,1.063,0.733,0.323,0.587,0.557,��,2.5,��
2023/01/11,00:20,0.570,0.827,0.517,1.064,0.734,0.323,0.587,0.558,��,2.6,��
2023/01/11,00:30,0.570,0.830,0.517,1.061,0.732,0.324,0.588,0.558,��,1.8,��
2023/01/11,00:40,0.570,0.827,0.516,1.061,0.733,0.324,0.586,0.557,��쓌,1.8,��
2023/01/11,00:50,0.571,0.828,0.517,1.062,0.733,0.323,0.586,0.558,��쓌,2.6,��
2023/01/11,01:00,0.573,0.828,0.518,1.061,0.733,0.324,0.586,0.558,��쓌,2.8,��
2023/01/11,01:10,0.572,0.830,0.518,1.065,0.731,0.323,0.586,0.557,�쐼,2.5,��
2023/01/11,01:20,0.571,0.829,0.518,1.062,0.733,0.325,0.585,0.559,��,2.8,��
2023/01/11,01:30,0.570,0.830,0.518,1.063,0.732,0.325,0.586,0.558,��,2.4,��
2023/01/11,01:40,0.571,0.828,0.517,1.063,0.733,0.324,0.587,0.558,���쐼,2.5,��
2023/01/11,01:50,0.571,0.828,0.517,1.061,0.734,0.325,0.586,0.557,���쐼,1.3,��
2023/01/11,02:00,0.570,0.829,0.517,1.063,0.731,0.324,0.585,0.558,���쐼,2.1,��
2023/01/11,02:10,0.570,0.829,0.517,1.061,0.733,0.324,0.586,0.557,���쐼,3.2,��
2023/01/11,02:20,0.572,0.829,0.518,1.061,0.732,0.323,0.585,0.557,���쐼,3.8,��
2023/01/11,02:30,0.570,0.828,0.518,1.058,0.732,0.324,0.587,0.558,���쐼,3.9,��
2023/01/11,02:40,0.568,0.827,0.517,1.061,0.731,0.324,0.587,0.559,���쐼,4.1,��
2023/01/11,02:50,0.572,0.828,0.517,1.061,0.729,0.323,0.586,0.558,���쐼,4.5,��
2023/01/11,03:00,0.571,0.828,0.517,1.062,0.733,0.324,0.587,0.556,���쐼,4.6,��
2023/01/11,03:10,0.569,0.828,0.518,1.061,0.732,0.325,0.586,0.558,���쐼,4.7,��
2023/01/11,03:20,0.570,0.828,0.516,1.060,0.733,0.324,0.586,0.558,���쐼,4.1,��
2023/01/11,03:30,0.570,0.828,0.517,1.061,0.732,0.324,0.585,0.558,���쐼,3.6,��
2023/01/11,03:40,0.570,0.828,0.516,1.061,0.730,0.325,0.585,0.558,���쐼,2.8,��
2023/01/11,03:50,0.570,0.828,0.517,1.062,0.733,0.324,0.586,0.558,���쐼,3.5,��
2023/01/11,04:00,0.572,0.827,0.517,1.061,0.731,0.325,0.585,0.557,���쐼,4.2,��
2023/01/11,04:10,0.571,0.829,0.516,1.059,0.732,0.325,0.588,0.557,���쐼,4.7,��
2023/01/11,04:20,0.570,0.829,0.517,1.061,0.731,0.325,0.587,0.557,���쐼,4.9,��
2023/01/11,04:30,0.569,0.828,0.516,1.063,0.730,0.324,0.587,0.557,��,4.5,��
2023/01/11,04:40,0.570,0.828,0.515,1.064,0.731,0.324,0.586,0.557,��,4.4,��
2023/01/11,04:50,0.570,0.828,0.517,1.060,0.733,0.325,0.586,0.558,��,4.4,��
2023/01/11,05:00,0.569,0.828,0.515,1.061,0.730,0.325,0.585,0.559,��,4.1,��
2023/01/11,05:10,0.569,0.827,0.515,1.061,0.730,0.324,0.587,0.557,��,4.2,��
2023/01/11,05:20,0.570,0.829,0.518,1.062,0.733,0.323,0.584,0.557,��,4.7,��
2023/01/11,05:30,0.571,0.827,0.517,1.060,0.732,0.324,0.586,0.556,��,4.2,��
2023/01/11,05:40,0.570,0.827,0.518,1.061,0.729,0.324,0.587,0.557,��,4.9,��
2023/01/11,05:50,0.573,0.830,0.517,1.061,0.729,0.324,0.585,0.557,���쐼,4.4,��
2023/01/11,06:00,0.570,0.826,0.518,1.062,0.731,0.324,0.586,0.557,���쐼,4.4,��
2023/01/11,06:10,0.571,0.827,0.516,1.060,0.730,0.324,0.584,0.558,��,3.9,��
2023/01/11,06:20,0.569,0.825,0.517,1.061,0.732,0.325,0.587,0.558,��,3.9,��
2023/01/11,06:30,0.569,0.828,0.514,1.062,0.729,0.324,0.587,0.557,��,3.8,��
2023/01/11,06:40,0.570,0.828,0.517,1.062,0.731,0.324,0.586,0.557,��,4.1,��
2023/01/11,06:50,0.569,0.825,0.517,1.061,0.730,0.323,0.585,0.557,��,2.1,��
2023/01/11,07:00,0.570,0.826,0.515,1.059,0.730,0.324,0.587,0.557,��,2.6,��
2023/01/11,07:10,0.569,0.829,0.516,1.059,0.730,0.324,0.585,0.557,���k��,3.2,��
2023/01/11,07:20,0.570,0.828,0.517,1.063,0.732,0.324,0.586,0.558,���k��,3.1,��
2023/01/11,07:30,0.571,0.827,0.516,1.061,0.729,0.323,0.586,0.555,���k��,1.4,��
2023/01/11,07:40,0.569,0.827,0.517,1.061,0.731,0.324,0.587,0.557,��,0.9,��
2023/01/11,07:50,0.570,0.827,0.515,1.062,0.729,0.323,0.587,0.558,��쐼,1.2,��
2023/01/11,08:00,0.570,0.826,0.516,1.060,0.731,0.324,0.585,0.557,�쐼,1.8,��
2023/01/11,08:10,0.570,0.826,0.515,1.061,0.730,0.326,0.586,0.557,���쐼,2.3,��
2023/01/11,08:20,0.571,0.826,0.516,1.061,0.730,0.324,0.585,0.557,���쐼,4.1,��
2023/01/11,08:30,0.571,0.827,0.517,1.061,0.732,0.322,0.586,0.558,��,4.6,��
2023/01/11,08:40,0.572,0.827,0.516,1.063,0.730,0.324,0.587,0.557,��,3.5,��
2023/01/11,08:50,0.571,0.827,0.518,1.062,0.728,0.324,0.586,0.557,���쐼,2.2,��
2023/01/11,09:00,0.570,0.826,0.517,1.062,0.728,0.323,0.588,0.558,�쐼,1.9,��
2023/01/11,09:10,0.571,0.825,0.517,1.063,0.731,0.324,0.588,0.557,�쐼,2.0,��
2023/01/11,09:20,0.572,0.825,0.517,1.061,0.731,0.324,0.587,0.559,��,1.8,��
2023/01/11,09:30,0.574,0.828,0.516,1.063,0.730,0.324,0.587,0.558,���쐼,1.2,��
2023/01/11,09:40,0.572,0.828,0.517,1.062,0.728,0.325,0.588,0.557,��,1.9,��
2023/01/11,09:50,0.570,0.826,0.518,1.061,0.730,0.325,0.588,0.559,��,2.1,��
2023/01/11,10:00,0.571,0.827,0.516,1.062,0.732,0.325,0.587,0.558,���k��,2.3,��
2023/01/11,10:10,0.572,0.824,0.517,1.060,0.730,0.326,0.585,0.559,-,CALM,��
2023/01/11,10:20,0.572,0.825,0.515,1.062,0.729,0.325,0.586,0.558,�k��,2.1,��
2023/01/11,10:30,0.573,0.825,0.517,1.062,0.731,0.325,0.584,0.558,�k��,1.7,��
2023/01/11,10:40,0.574,0.823,0.516,1.061,0.732,0.325,0.585,0.556,��,3.4,��
2023/01/11,10:50,0.572,0.823,0.517,1.062,0.731,0.325,0.587,0.558,��,5.2,��
2023/01/11,11:00,0.573,0.824,0.517,1.062,0.733,0.325,0.585,0.560,���k��,4.4,��
2023/01/11,11:10,0.572,0.824,0.518,1.062,0.733,0.325,0.584,0.558,���k��,3.4,��
2023/01/11,11:20,0.574,0.828,0.517,1.063,0.732,0.325,0.586,0.558,��,2.6,��
2023/01/11,11:30,0.574,0.824,0.517,1.062,0.732,0.325,0.585,0.559,���k��,4.1,��
2023/01/11,11:40,0.572,0.824,0.520,1.063,0.734,0.325,0.583,0.560,��,4.9,��
2023/01/11,11:50,0.574,0.827,0.519,1.061,0.733,0.326,0.586,0.559,��,4.4,��
2023/01/11,12:00,0.574,0.828,0.518,1.062,0.734,0.326,0.587,0.558,��,5.3,��
2023/01/11,12:10,0.573,0.827,0.519,1.063,0.733,0.324,0.587,0.559,��,2.4,��
2023/01/11,12:20,0.574,0.827,0.519,1.063,0.733,0.325,0.587,0.558,���k��,3.8,��
2023/01/11,12:30,0.572,0.828,0.519,1.062,0.731,0.324,0.586,0.559,���k��,1.8,��
2023/01/11,12:40,0.573,0.827,0.519,1.062,0.733,0.324,0.588,0.558,��,2.9,��
2023/01/11,12:50,0.573,0.828,0.519,1.062,0.735,0.324,0.587,0.559,�k��,3.4,��
2023/01/11,13:00,0.576,0.826,0.519,1.064,0.734,0.325,0.588,0.558,�k��,3.2,��
2023/01/11,13:10,0.573,0.827,0.519,1.064,0.733,0.326,0.587,0.557,�k��,2.4,��
2023/01/11,13:20,0.574,0.826,0.519,1.064,0.733,0.324,0.587,0.558,���k��,2.3,��
2023/01/11,13:30,0.572,0.826,0.519,1.064,0.735,0.325,0.586,0.555,��,3.1,��
2023/01/11,13:40,0.574,0.826,0.520,1.064,0.735,0.324,0.588,0.558,��,4.4,��
2023/01/11,13:50,0.572,0.827,0.520,1.063,0.734,0.325,0.588,0.559,��,4.9,��
2023/01/11,14:00,0.573,0.825,0.520,1.061,0.735,0.325,0.587,0.557,��,6.3,��
2023/01/11,14:10,0.574,0.826,0.519,1.064,0.735,0.325,0.587,0.558,��,5.2,��
2023/01/11,14:20,0.573,0.826,0.519,1.063,0.734,0.326,0.590,0.557,��,6.0,��
2023/01/11,14:30,0.574,0.825,0.518,1.064,0.734,0.325,0.590,0.556,��,5.8,��
2023/01/11,14:40,0.574,0.825,0.519,1.063,0.734,0.326,0.589,0.558,��,6.0,��
2023/01/11,14:50,0.574,0.825,0.520,1.065,0.735,0.325,0.589,0.558,��,5.0,��
2023/01/11,15:00,0.574,0.826,0.516,1.064,0.736,0.325,0.589,0.556,���쐼,5.0,��
2023/01/11,15:10,0.573,0.826,0.520,1.064,0.735,0.324,0.589,0.558,���쐼,5.2,��
2023/01/11,15:20,0.574,0.828,0.518,1.065,0.736,0.326,0.589,0.559,���쐼,7.1,��
2023/01/11,15:30,0.574,0.829,0.519,1.064,0.735,0.325,0.588,0.559,���쐼,6.4,��
2023/01/11,15:40,0.575,0.829,0.519,1.063,0.734,0.325,0.589,0.559,���쐼,4.7,��
2023/01/11,15:50,0.573,0.831,0.517,1.064,0.735,0.326,0.590,0.560,���쐼,5.0,��
2023/01/11,16:00,0.574,0.829,0.520,1.064,0.732,0.325,0.589,0.558,�쐼,5.2,��
2023/01/11,16:10,0.574,0.829,0.519,1.066,0.733,0.325,0.590,0.560,�쐼,5.5,��
2023/01/11,16:20,0.574,0.831,0.520,1.062,0.733,0.326,0.589,0.558,���쐼,5.6,��
2023/01/11,16:30,0.575,0.828,0.518,1.065,0.732,0.325,0.588,0.559,���쐼,6.1,��
2023/01/11,16:40,0.574,0.830,0.520,1.064,0.734,0.326,0.590,0.560,���쐼,6.9,��
2023/01/11,16:50,0.573,0.828,0.518,1.065,0.734,0.325,0.589,0.559,���쐼,6.0,��
2023/01/11,17:00,0.573,0.829,0.520,1.063,0.733,0.326,0.589,0.559,���쐼,6.9,��
2023/01/11,17:10,0.573,0.830,0.521,1.064,0.734,0.324,0.589,0.558,���쐼,7.4,��
2023/01/11,17:20,0.575,0.830,0.519,1.064,0.734,0.325,0.589,0.559,���쐼,7.1,��
2023/01/11,17:30,0.572,0.831,0.519,1.062,0.734,0.326,0.589,0.559,���쐼,7.5,��
2023/01/11,17:40,0.573,0.830,0.520,1.064,0.733,0.325,0.588,0.559,���쐼,7.1,��
2023/01/11,17:50,0.574,0.830,0.520,1.062,0.734,0.325,0.589,0.559,���쐼,5.2,��
2023/01/11,18:00,0.573,0.830,0.520,1.064,0.735,0.325,0.589,0.559,���쐼,4.9,��
2023/01/11,18:10,0.573,0.830,0.518,1.064,0.734,0.325,0.589,0.558,���쐼,4.7,��
2023/01/11,18:20,0.574,0.829,0.519,1.064,0.733,0.325,0.588,0.560,�쐼,4.1,��
2023/01/11,18:30,0.573,0.832,0.517,1.063,0.733,0.325,0.588,0.560,�쐼,4.1,��
2023/01/11,18:40,0.572,0.830,0.519,1.064,0.733,0.324,0.589,0.558,���쐼,5.8,��
2023/01/11,18:50,0.572,0.831,0.519,1.062,0.733,0.325,0.588,0.559,�쐼,4.1,��
2023/01/11,19:00,0.572,0.829,0.520,1.063,0.735,0.326,0.588,0.559,�쐼,3.3,��
2023/01/11,19:10,0.573,0.829,0.519,1.065,0.734,0.325,0.587,0.559,���쐼,2.7,��
2023/01/11,19:20,0.572,0.829,0.520,1.063,0.735,0.324,0.589,0.559,�쐼,3.9,��
2023/01/11,19:30,0.573,0.832,0.519,1.066,0.733,0.325,0.587,0.559,���쐼,4.4,��
2023/01/11,19:40,0.572,0.830,0.518,1.063,0.732,0.325,0.588,0.557,���쐼,4.4,��
2023/01/11,19:50,0.573,0.830,0.520,1.061,0.734,0.325,0.588,0.559,���쐼,4.5,��
2023/01/11,20:00,0.574,0.830,0.520,1.062,0.734,0.324,0.588,0.559,�쐼,4.1,��
2023/01/11,20:10,0.573,0.830,0.519,1.063,0.733,0.326,0.588,0.558,�쐼,5.8,��
2023/01/11,20:20,0.574,0.831,0.519,1.064,0.733,0.327,0.586,0.559,�쐼,6.0,��
2023/01/11,20:30,0.574,0.830,0.520,1.063,0.733,0.325,0.589,0.558,�쐼,6.6,��
2023/01/11,20:40,0.573,0.827,0.520,1.064,0.733,0.326,0.587,0.558,�쐼,6.3,��
2023/01/11,20:50,0.574,0.826,0.519,1.061,0.734,0.324,0.587,0.562,�쐼,5.6,��
2023/01/11,21:00,0.573,0.831,0.518,1.063,0.734,0.325,0.589,0.559,�쐼,6.0,��
2023/01/11,21:10,0.573,0.830,0.519,1.063,0.735,0.325,0.589,0.559,��쐼,6.9,��
2023/01/11,21:20,0.571,0.831,0.518,1.063,0.732,0.326,0.588,0.558,��쐼,5.8,��
2023/01/11,21:30,0.572,0.827,0.519,1.062,0.734,0.326,0.588,0.559,��쐼,5.5,��
2023/01/11,21:40,0.572,0.830,0.519,1.063,0.732,0.325,0.587,0.559,��쐼,5.0,��
2023/01/11,21:50,0.572,0.829,0.519,1.064,0.734,0.325,0.590,0.558,��쐼,6.6,��
2023/01/11,22:00,0.573,0.828,0.521,1.063,0.733,0.325,0.588,0.558,��쐼,7.1,��
2023/01/11,22:10,0.574,0.829,0.517,1.062,0.733,0.325,0.590,0.559,��쐼,7.5,��
2023/01/11,22:20,0.573,0.830,0.519,1.064,0.733,0.325,0.588,0.559,��쐼,8.2,��
2023/01/11,22:30,0.575,0.828,0.519,1.062,0.733,0.326,0.589,0.558,��쐼,8.9,��
2023/01/11,22:40,0.574,0.829,0.520,1.062,0.735,0.325,0.589,0.559,��쐼,8.9,��
2023/01/11,22:50,0.574,0.829,0.520,1.063,0.735,0.325,0.587,0.558,��쐼,7.4,��
2023/01/11,23:00,0.574,0.832,0.519,1.063,0.736,0.326,0.588,0.559,��쐼,7.4,��
2023/01/11,23:10,0.575,0.830,0.519,1.063,0.734,0.326,0.588,0.559,��쐼,6.4,��
2023/01/11,23:20,0.574,0.830,0.518,1.061,0.734,0.326,0.589,0.558,��쐼,6.7,��
2023/01/11,23:30,0.573,0.829,0.520,1.065,0.735,0.326,0.589,0.559,��쐼,5.5,��
2023/01/11,23:40,0.574,0.829,0.521,1.065,0.733,0.325,0.588,0.559,�쐼,5.6,��
2023/01/11,23:50,0.574,0.832,0.519,1.065,0.732,0.326,0.588,0.559,�쐼,5.3,��
